Weather History for Wendover, UT

Change the Weather History Date:

Saturday, January 19, 2013

  Actual Average Record
Temperature  
Mean Temperature 2 °F -  
Max Temperature 10 °F 36 °F 57 °F (1953)
Min Temperature -5 °F 20 °F -14 °F (1984)
Degree Days  
Heating Degree Days 62    
Moisture  
Dew Point -2 °F    
Average Humidity 84    
Maximum Humidity 100    
Minimum Humidity 71    
Precipitation  
Precipitation 0.00 in - - ()
Sea Level Pressure  
Sea Level Pressure 30.55 in    
Wind  
Wind Speed 1 mph (SSW)    
Max Wind Speed 7 mph    
Max Gust Speed -    
Visibility 9 miles    
Events      
Averages and records for this station are not official NWS values.
T = Trace of Precipitation, MM = Missing Value Source: NWS Daily Summary

Daily Weather History Graph

Daily Weather History Graph

Search for Another Location

Airport:

Trip Planner

Search our weather history database for the weather conditions in past years. The results will help you decide how hot, cold, wet, or windy it might be!

Date:

Astronomy

Jan. 19, 2013 Rise Set
Actual Time 7:55 AM MST 5:38 PM MST
Civil Twilight 7:26 AM MST 6:08 PM MST
Nautical Twilight 6:52 AM MST 6:41 PM MST
Astronomical Twilight 6:19 AM MST 7:14 PM MST
Moon 12:07 PM MST (1/19) 1:33 AM MST (1/19)
Length of Visible Light 10h 42m
Length of Day
9h 42m
First Quarter, 58% of the Moon is Illuminated
Jan 19
First Quarter
Jan 26
Full
Feb 3
Last Quarter
Feb 10
New
Feb 17
First Quarter

Hourly Weather History & Observations

Time (MST) Temp. Windchill Dew Point Humidity Pressure Visibility Wind Dir Wind Speed Gust Speed Precip Events Conditions
12:15 AM -0.4 °F - -4.0 °F 85% 30.50 in 10.0 mi Calm Calm - N/A   Clear
12:35 AM -0.4 °F - -2.2 °F 92% 30.51 in 10.0 mi Calm Calm - N/A   Clear
12:55 AM -0.4 °F - -5.8 °F 78% 30.51 in 10.0 mi Calm Calm - N/A   Clear
1:15 AM -2.2 °F -10.4 °F -9.4 °F 71% 30.51 in 10.0 mi West 3.5 mph - N/A   Clear
1:35 AM -2.2 °F - -2.2 °F 100% 30.50 in 10.0 mi Calm Calm - N/A   Clear
1:55 AM -0.4 °F - -7.6 °F 72% 30.52 in 10.0 mi Calm Calm - N/A   Clear
2:35 AM -0.4 °F -10.4 °F -0.4 °F 100% 30.52 in 10.0 mi NNE 4.6 mph - N/A   Clear
2:55 AM -0.4 °F -10.4 °F -5.8 °F 78% 30.52 in 10.0 mi ENE 4.6 mph - N/A   Clear
3:15 AM -0.4 °F -8.3 °F -4.0 °F 85% 30.53 in 10.0 mi ENE 3.5 mph - N/A   Clear
3:35 AM -2.2 °F -10.4 °F -2.2 °F 100% 30.54 in 10.0 mi SSW 3.5 mph - N/A   Clear
3:55 AM -2.2 °F - -9.4 °F 71% 30.53 in 10.0 mi Calm Calm - N/A   Clear
4:15 AM -2.2 °F - -5.8 °F 85% 30.53 in 10.0 mi Calm Calm - N/A   Clear
4:35 AM -2.2 °F - -5.8 °F 85% 30.54 in 10.0 mi Calm Calm - N/A   Clear
5:15 AM -4.0 °F - -9.4 °F 78% 30.54 in 10.0 mi Calm Calm - N/A   Clear
5:35 AM -4.0 °F - -5.8 °F 92% 30.54 in 10.0 mi Calm Calm - N/A   Clear
5:55 AM -4.0 °F - -7.6 °F 85% 30.55 in 10.0 mi Calm Calm - N/A   Clear
6:15 AM -2.2 °F -12.5 °F -5.8 °F 85% 30.55 in 10.0 mi SSW 4.6 mph - N/A   Clear
6:35 AM -4.0 °F - -7.6 °F 85% 30.55 in 10.0 mi Calm Calm - N/A   Clear
6:55 AM -4.0 °F - -7.6 °F 85% 30.55 in 10.0 mi Calm Calm - N/A   Clear
7:15 AM -5.8 °F - -7.6 °F 92% 30.55 in 10.0 mi Calm Calm - N/A   Clear
7:35 AM -4.0 °F - -7.6 °F 85% 30.56 in 10.0 mi Calm Calm - N/A   Clear
7:55 AM -4.0 °F - -9.4 °F 78% 30.56 in 10.0 mi Calm Calm - N/A   Clear
8:15 AM -4.0 °F - -5.8 °F 92% 30.57 in 10.0 mi Calm Calm - N/A   Mostly Cloudy
8:35 AM -2.2 °F - -5.8 °F 85% 30.58 in 10.0 mi Calm Calm - N/A   Mostly Cloudy
8:55 AM -0.4 °F - -2.2 °F 92% 30.58 in 10.0 mi Calm Calm - N/A   Overcast
9:15 AM -0.4 °F -8.3 °F -4.0 °F 85% 30.59 in 10.0 mi South 3.5 mph - N/A   Overcast
9:35 AM -0.4 °F - -5.8 °F 78% 30.60 in 10.0 mi Calm Calm - N/A   Overcast
9:55 AM -0.4 °F - -2.2 °F 92% 30.60 in 9.0 mi Calm Calm - N/A   Overcast
10:15 AM 1.4 °F - -2.2 °F 85% 30.61 in 6.0 mi Calm Calm - N/A   Overcast
10:35 AM 1.4 °F - 1.4 °F 100% 30.61 in 9.0 mi Calm Calm - N/A   Overcast
10:55 AM 3.2 °F - 1.4 °F 92% 30.62 in 8.0 mi Calm Calm - N/A   Overcast
11:15 AM 5.0 °F - 1.4 °F 85% 30.62 in 2.5 mi Calm Calm - N/A   Overcast
11:35 AM 5.0 °F - 1.4 °F 85% 30.60 in 2.0 mi Calm Calm - N/A   Overcast
11:55 AM 6.8 °F - 3.2 °F 85% 30.59 in 3.0 mi Calm Calm - N/A   Overcast
12:15 PM 6.8 °F - 3.2 °F 85% 30.58 in 5.0 mi Calm Calm - N/A   Overcast
12:35 PM 8.6 °F - 3.2 °F 79% 30.57 in 8.0 mi Calm Calm - N/A   Mostly Cloudy
12:55 PM 8.6 °F - 3.2 °F 79% 30.57 in 10.0 mi Calm Calm - N/A   Partly Cloudy
1:15 PM 8.6 °F - 3.2 °F 79% 30.56 in 5.0 mi Calm Calm - N/A   Clear
1:55 PM 10.4 °F - 5.0 °F 79% 30.55 in 10.0 mi Calm Calm - N/A   Clear
2:15 PM 10.4 °F - 3.2 °F 73% 30.54 in 10.0 mi Calm Calm - N/A   Clear
2:35 PM 10.4 °F - 5.0 °F 79% 30.54 in 10.0 mi Calm Calm - N/A   Clear
2:55 PM 10.4 °F - 6.8 °F 85% 30.53 in 10.0 mi Calm Calm - N/A   Clear
3:15 PM 10.4 °F - 3.2 °F 73% 30.53 in 10.0 mi Calm Calm - N/A   Scattered Clouds
3:35 PM 10.4 °F - 5.0 °F 79% 30.53 in 10.0 mi Calm Calm - N/A   Scattered Clouds
3:55 PM 10.4 °F - 6.8 °F 85% 30.53 in 10.0 mi Calm Calm - N/A   Partly Cloudy
4:15 PM 10.4 °F - 5.0 °F 79% 30.53 in 10.0 mi Calm Calm - N/A   Clear
4:35 PM 10.4 °F - 3.2 °F 73% 30.53 in 10.0 mi Calm Calm - N/A   Clear
4:55 PM 10.4 °F - 3.2 °F 73% 30.53 in 10.0 mi Calm Calm - N/A   Partly Cloudy
5:15 PM 8.6 °F - 3.2 °F 79% 30.53 in 10.0 mi Calm Calm - N/A   Partly Cloudy
5:35 PM 8.6 °F - 3.2 °F 79% 30.53 in 10.0 mi Calm Calm - N/A   Clear
5:55 PM 8.6 °F - 3.2 °F 79% 30.53 in 10.0 mi Calm Calm - N/A   Clear
6:15 PM 8.6 °F 2.0 °F 3.2 °F 79% 30.52 in 10.0 mi South 3.5 mph - N/A   Clear
6:35 PM 6.8 °F -0.1 °F 3.2 °F 85% 30.53 in 10.0 mi WSW 3.5 mph - N/A   Clear
6:55 PM 3.2 °F -4.2 °F -0.4 °F 85% 30.52 in 10.0 mi WSW 3.5 mph - N/A   Clear
7:15 PM 3.2 °F - -0.4 °F 85% 30.52 in 10.0 mi Calm Calm - N/A   Clear
7:35 PM 3.2 °F -6.2 °F 1.4 °F 92% 30.52 in 10.0 mi South 4.6 mph - N/A   Clear
7:55 PM 3.2 °F -9.1 °F -0.4 °F 85% 30.52 in 10.0 mi South 6.9 mph - N/A   Clear
8:15 PM 1.4 °F -8.3 °F -2.2 °F 85% 30.53 in 10.0 mi South 4.6 mph - N/A   Clear
8:35 PM 1.4 °F -9.9 °F -0.4 °F 92% 30.53 in 10.0 mi South 5.8 mph - N/A   Clear
8:55 PM 1.4 °F -6.2 °F -0.4 °F 92% 30.53 in 10.0 mi SSW 3.5 mph - N/A   Clear
9:15 PM 1.4 °F - -2.2 °F 85% 30.53 in 10.0 mi Calm Calm - N/A   Clear
9:35 PM -0.4 °F - -2.2 °F 92% 30.53 in 10.0 mi Calm Calm - N/A   Clear
9:55 PM -0.4 °F - -2.2 °F 92% 30.53 in 10.0 mi Calm Calm - N/A   Clear
10:15 PM -0.4 °F - -4.0 °F 85% 30.53 in 10.0 mi Calm Calm - N/A   Clear
10:35 PM -0.4 °F - -2.2 °F 92% 30.54 in 10.0 mi Calm Calm - N/A   Clear
10:55 PM -0.4 °F - -4.0 °F 85% 30.54 in 10.0 mi Calm Calm - N/A   Clear
11:15 PM -0.4 °F - -5.8 °F 78% 30.54 in 10.0 mi Calm Calm - N/A   Clear
11:35 PM -2.2 °F - -5.8 °F 85% 30.53 in 10.0 mi Calm Calm - N/A   Clear
11:55 PM -2.2 °F - -4.0 °F 92% 30.53 in 10.0 mi Calm Calm - N/A   Clear